Welcome to the New NWS' Forecast!
Most changes are behind the scenes, but click here for differences you might notice.

Regional Weather Roundup (RWR)

Issued by Gray - Portland, ME (GYX)

                            
171 
ASUS41 KGYX 200010
RWRGYX
WEATHER ROUNDUP FOR MAINE AND NEW HAMPSHIRE
NATIONAL WEATHER SERVICE GRAY ME
800 PM EDT WED SEP 19 2018

MEZ002-005-006-010-012-015-018-020-021-024-026-027-029-200100-
MAINE
  
CITY           SKY/WX    TMP DP  RH WIND       PRES   REMARKS
PORTLAND       CLOUDY    61  53  75 NE10      30.09R                  
6HR MIN TEMP:  61; 6HR MAX TEMP:  65;                                

SANFORD        CLOUDY    58  56  93 CALM      30.09R                  
BAR HARBOR     CLOUDY    58  54  86 NE9       30.09R                  
WISCASSET      CLOUDY    59  54  83 CALM      30.11R                  
6HR MIN TEMP:  59; 6HR MAX TEMP:  64;                                

ROCKLAND       CLOUDY    58  56  93 VRB7      30.09R                  
FRYEBURG       CLOUDY    61  54  77 CALM      30.11R                  
6HR MIN TEMP:  60; 6HR MAX TEMP:  65;                                

LEWISTONAUBURN CLOUDY    59  53  80 NE7       30.09R                  
AUGUSTA        CLOUDY    57  52  83 NE10      30.11R                  
6HR MIN TEMP:  57; 6HR MAX TEMP:  62;                                

WATERVILLE     MOCLDY    56  52  86 NE7       30.09R                  
BANGOR         CLOUDY    58  54  86 N6        30.11R                  
6HR MIN TEMP:  58; 6HR MAX TEMP:  61; 6HR PCP: TRACE;                

GREENVILLE       N/A     52  50  93 E3        30.11R                  
6HR MIN TEMP:  52; 6HR MAX TEMP:  61; 6HR PCP:  0.03;                

MILLINOCKET    CLOUDY    54  51  90 NE6       30.14R                  
6HR MIN TEMP:  54; 6HR MAX TEMP:  60; 6HR PCP: TRACE;                

HOULTON        MOCLDY    50  47  89 E8        30.15R                  
6HR MIN TEMP:  51; 6HR MAX TEMP:  58; 6HR PCP:  0.01;                

PRESQUE ISLE   CLOUDY    51  46  83 E12       30.17R                  
6HR MIN TEMP:  51; 6HR MAX TEMP:  57; 6HR PCP:  0.01;                

FRENCHVILLE    CLOUDY    48  44  86 E8        30.17R                  
6HR MIN TEMP:  49; 6HR MAX TEMP:  54; 6HR PCP:  0.01;                

CARIBOU        CLOUDY    51  44  77 E8        30.16R                  
6HR MIN TEMP:  51; 6HR MAX TEMP:  58; 6HR PCP:  0.01;                

$$

NHZ002-005-008-009-011-012-014-200100-
NEW HAMPSHIRE
  
CITY           SKY/WX    TMP DP  RH WIND       PRES   REMARKS
ROCHESTER      CLOUDY    59  57  93 E3        30.08R                  
6HR MIN TEMP:  59; 6HR MAX TEMP:  65;                                

NASHUA         CLOUDY    61  60  97 NE5       30.08R                  
MANCHESTER     CLOUDY    61  58  90 E5        30.06R                  
6HR MIN TEMP:  61; 6HR MAX TEMP:  66; 6HR PCP: TRACE;                

CONCORD        CLOUDY    62  57  83 CALM      30.07R                  
6HR MIN TEMP:  62; 6HR MAX TEMP:  67; 6HR PCP: TRACE;                

LACONIA        CLOUDY    61  55  81 E7        30.08R                  
BERLIN         CLOUDY    60  53  77 NW6       30.10R                  
6HR MIN TEMP:  60; 6HR MAX TEMP:  66;                                

WHITEFIELD     CLOUDY    58  52  80 CALM      30.10R                  
6HR MIN TEMP:  58; 6HR MAX TEMP:  65;                                

JAFFREY        CLOUDY    62  60  93 CALM      30.07R                  
6HR MIN TEMP:  62; 6HR MAX TEMP:  67;                                

KEENE          MOCLDY   N/A N/A N/A VRB3      30.05R                  
LEBANON        CLOUDY    63  50  62 NE8       30.08R                  
6HR MIN TEMP:  62; 6HR MAX TEMP:  72;                                

MT WASHINGTON  FOG       39  39 100 NE5         N/A  VSB 1/16         
6HR MIN TEMP:  39; 6HR MAX TEMP:  53;                                

$$

VTZ005-007-008-200100-
VERMONT
  
CITY           SKY/WX    TMP DP  RH WIND       PRES   REMARKS
ST JOHNSBURY     N/A     57  50  77 MISG      30.10R                  
MONTPELIER     CLOUDY    56  50  80 N7        30.14R                  
BURLINGTON     CLOUDY    60  47  61 N7        30.13R                  
$$

MAZ007-012-024-CTZ003-RIZ002-NYZ038-NYZ072-200100-
SOUTHERN NEW ENGLAND AND NY
  
CITY           SKY/WX    TMP DP  RH WIND       PRES   REMARKS
BOSTON         CLOUDY    63  55  75 NE13      30.06R                  
WORCESTER      CLOUDY    59  57  93 NE3       30.06R                  
NANTUCKET      CLOUDY    62  56  80 N20G31    30.00R                  
PROVIDENCE     FAIR      60  56  86 NE12      30.05R                  
HARTFORD       CLOUDY    67  60  78 E8        30.02R                  
ALBANY         CLOUDY    67  54  63 N14G20    30.05R                  
NEW YORK CITY  MOCLDY    74  67  78 SE9       29.97R                  
$$

ANZ081-ANZ082-ANZ150-NHZ014-MEZ023>029-200100-
COASTAL MARINE OBSERVATIONS
  
STATION/POSITION TIME  TEMP    WIND        PRES    WAVE
                       AIR SEA DIR/SP/G            HT/PER
                 (UTC) (F)     (DEG/KT/KT) (MB)    (FT/S)
MOUNT DESERT ROC 0000   56      10/ 16/ 18 1018.4R
MATINICUS ROCK   2300   56      50/  9/ 12 1017.6R
ISLE OF SHOALS   2300   60      60/ 14/ 16 1017.1R
JEFFREYS LEDGE   2336      64                N/A     5/ 5
$$

.............KEY..............
   WCI - WIND CHILL
   TC  - TEMPERATURE IN CELSIUS
   VSB - VISIBILITY IN MILES
   HX  - HEAT INDEX
   FAIR- INDICATES FEW OR NO CLOUDS BELOW 12,000 FT, WITH NO 
         SIGNIFICANT WEATHER AND/OR OBSTRUCTIONS TO VISIBILITY.